Content
SEND FEEDBACK

Daily
Averages
Monthly
Summary
United States of America

MANCHESTER, NEW HAMPSHIRE


Home > North America > United States > New Hampshire
Elevation: 305 feet     Latitude: 42 59N     Longitude: 071 24W

WEATHER
 
SELECT A DAY
Number of Records: 198,603;   Date Range: 1/1/95 - 7/26/14
 
SHARE

PRINT THIS DATA

[ ← Previous Day ]
WEATHER ALMANAC - FEBRUARY 13, 2013
[ Next Day → ]
[ °C ]   °F
Weather ElementAverageHighLow
Temperature34.3 °F39.9 °F (3:53 pm)28 °F (9:53 pm)
Dewpoint21 °F24.1 °F (1:53 am)19 °F (6:53 am)
Humidity59.2 %78 % (9:53 pm)43 % (3:53 pm)
Barometer29.83 in29.89 in (7:53 am)29.77 in (10:53 pm)
Wind Speed4 mph12.7 mph (9:53 am)
Wind Gust16.1 mph (8:53 am)
Weather ElementAverage
Visibility10 mi
Wind DirectionSSE (152.2 °)

Weather ElementTotal
Precipitation---
Heating Degree Days31.1 (Base 65)
Averaged from 23 records on February 13, 2013
WEATHER CONDITIONS BREAKOUT
WIND DIRECTION BREAKOUT
WEATHER BY HOUR - FEBRUARY 13, 2013
[ °C ]   °F
Local TimeTemperatureDewpointHumidityBarometerVisibilityWind DirectionWind SpeedGust SpeedPrecipitationEventsConditions
1:53 AM35.1 °F24.1 °F64 %29.83 in10.0 miWNW (290°)8.1 mphOvercast
2:53 AM34.0 °F23.0 °F64 %29.84 in10.0 miVariable3.5 mphClear
3:53 AM34.0 °F21.0 °F59 %29.85 in10.0 miWSW (240°)5.8 mphClear
4:53 AM32.0 °F21.0 °F64 %29.87 in10.0 miWSW (240°)3.5 mphClear
5:53 AM32.0 °F19.9 °F61 %29.87 in10.0 miSW (230°)4.6 mphClear
6:53 AM30.9 °F19.0 °F61 %29.88 in10.0 miSouth (170°)3.5 mphClear
7:53 AM30.9 °F19.9 °F64 %29.89 in10.0 miCalmClear
8:53 AM36.0 °F21.0 °F55 %29.88 in10.0 miNW (310°)10.4 mph16.1 mphPartly Cloudy
9:53 AM37.0 °F19.9 °F50 %29.88 in10.0 miWNW (300°)12.7 mphPartly Cloudy
10:53 AM37.9 °F21.0 °F51 %29.86 in10.0 miWNW (290°)3.5 mphMostly Cloudy
11:53 AM37.9 °F19.9 °F48 %29.85 in10.0 miNNW (330°)5.8 mphMostly Cloudy
12:53 PM37.9 °F21.0 °F51 %29.83 in10.0 miVariable5.8 mphOvercast
1:53 PM39.0 °F21.0 °F49 %29.82 in10.0 miNorth (360°)4.6 mphMostly Cloudy
2:53 PM39.0 °F21.0 °F49 %29.80 in10.0 miNorth (10°)6.9 mphMostly Cloudy
3:53 PM39.9 °F19.0 °F43 %29.78 in10.0 miCalmMostly Cloudy
4:53 PM39.9 °F19.0 °F43 %29.79 in10.0 miCalmScattered Clouds
5:53 PM36.0 °F21.0 °F55 %29.78 in10.0 miNorth (350°)4.6 mphPartly Cloudy
6:53 PM33.1 °F21.9 °F64 %29.79 in10.0 miCalmClear
7:53 PM30.9 °F21.9 °F69 %29.79 in10.0 miCalmClear
8:53 PM28.9 °F21.9 °F75 %29.80 in10.0 miCalmClear
9:53 PM28.0 °F21.9 °F78 %29.78 in10.0 miNNE (20°)4.6 mphPartly Cloudy
10:53 PM28.9 °F21.9 °F75 %29.77 in10.0 miNorth (360°)3.5 mphMostly Cloudy
11:53 PM30.0 °F21.0 °F69 %29.77 in10.0 miCalmOvercast
Hourly data recorded from KMHT, located miles away from Manchester, New Hampshire







STORIES FROM OUR PARTNERS